Hourly Data Report for October 13, 2019

QUALICUM BEACH AIRPORT
BRITISH COLUMBIA
Current Station Operator: ECCC - MSC

49°20'14.000" N
124°23'38.000" W
58.20 m
1026562
71766
VOQ

Download Data

Hourly Data (October 2019)
Hourly Data Report for October 13, 2019
TIME
LST
Temp Definition
°C
Dew Point Definition
°C
Rel Hum Definition
%
Precip. Amount Definition
mm

Wind Dir Definition
10's deg

Wind Spd Definition
km/h
Visibility Definition
km
Stn Press Definition
kPa
Hmdx Definition


Wind Chill Definition


Weather Definition


00:00 10.2 7.4 83 0.0 26 4   100.74     LegendNANA
01:00 9.9 7.3 84 0.0 29 5   100.74     LegendNANA
02:00 10.0 7.1 82 0.0 26 5   100.73     LegendNANA
03:00 9.9 6.9 82 0.0 27 4   100.73     LegendNANA
04:00 9.6 6.7 82 0.0 27 5   100.70     LegendNANA
05:00 9.6 6.1 79 0.0 28 6   100.72     LegendNANA
06:00 9.2 5.7 79 0.0 25 5   100.73     LegendNANA
07:00 8.6 5.5 81 0.0 25 5   100.71     LegendNANA
08:00 9.9 5.6 75 0.0 28 8   100.75     LegendNANA
09:00 10.3 5.7 73 0.0 29 12   100.76     LegendNANA
10:00 11.1 5.1 67 0.0 32 15   100.80     LegendNANA
11:00 12.4 4.2 58 0.0 32 9   100.78     LegendNANA
12:00 12.5 5.4 62 0.0 32 10   100.78     LegendNANA
13:00 12.2 5.4 63 0.0 34 10   100.79     LegendNANA
14:00 13.3 6.2 62 0.0 33 8   100.79     LegendNANA
15:00 12.8 6.2 64 0.0 1 6   100.76     LegendNANA
16:00 13.1 5.9 62 0.0 33 6   100.79     LegendNANA
17:00 12.1 5.3 63 0.0 29 3   100.78     LegendNANA
18:00 8.1 5.5 84 0.0 26 3   100.82     LegendNANA
19:00 6.9 5.2 89 0.0 26 2   100.88     LegendNANA
20:00 7.6 5.4 86 0.0 23 7   100.90     LegendNANA
21:00 6.5 5.0 90 0.0 24 5   100.95     LegendNANA
22:00 6.2 5.2 93 0.0 24 2   100.97     LegendNANA
23:00 6.8 5.3 90 0.0 23 1   100.98     LegendNANA

Notes on Data Quality.

Legend

  • E = Estimated
  • M = Missing
  • NA = Not Available*
  • [empty] = Indicates an unobserved value
Date modified: